Location: Liscomb Game Sanctuary
(45.1633°N, 62.5575°W)
Time: 19:11:19
(UTC-03:00)

Cosmos 1269 Rocket - Pass Details

Date: 22 February 2018
Orbit: 772 x 780 km, 74.1° (Epoch: 18 June)

Event Time Altitude Azimuth Distance (km) Brightness Sun altitude
Rises 19:28:07 0° 198° (SSW) 3,242 7.4 -18.4°
Reaches altitude 10° 19:30:29 10° 198° (SSW) 2,318 6.6 -18.8°
Maximum altitude 19:35:46 88° 111° (ESE) 782 3.9 -19.7°
Drops below altitude 10° 19:41:04 10° 22° (NNE) 2,329 6.3 -20.6°
Sets 19:43:27 0° 22° (NNE) 3,260 7.1 -21.1°
